Location: Palau
(42.3086°N, 3.1507°E)
Time: 22:29:37
(UTC+00:00)

STARLINK-1212 - Pass Details

Date: 26 May 2020
Orbit: 549 x 550 km, 53.0° (Epoch: 12 July)

Event Time Altitude Azimuth Distance (km) Brightness Sun altitude
Rises 01:29:27 0° 307° (NW) 2,712 7.3 -22.0°
Reaches altitude 10° 01:31:41 10° 308° (NW) 1,816 6.4 -21.9°
Maximum altitude 01:35:49 85° 37° (NE) 552 3.5 -21.5°
Drops below altitude 10° 01:39:56 10° 126° (SE) 1,806 6.2 -21.1°
Sets 01:42:09 0° 127° (SE) 2,696 7.1 -20.9°
